Flag for India Weather past 2 weeks in Hoshiarpur, Punjab, India

Now
84 °F

Fog.


Feels Like: 96 °F
Forecast: 69 / 94 °F
Wind: No wind

Location: Amritsar Airport

Current Time: Sep 22, 2014 at 8:49:32 PM

Latest Report: Sep 22, 2014 at 8:00 PM


Visibility: 2 mi

Pressure: 29.68 "Hg

Humidity: 84%

Dew point: 79 °F

Location of HoshiarpurLocation

Historic Weather in Hoshiarpur — Graph

°F

Hoshiarpur temperature yesterday

Maximum temperature yesterday: 91 °F (at 1:30 PM)
Minimum temperature yesterday: 73 °F (at 12:30 AM)
Average temperature yesterday: 81 °F

Past Weeks' High & Low Weather Summary

 TemperatureHumidityPressure
High95 °F (Sep 18, 3:00 PM)100% (Sep 7, 9:30 PM)29.80 "Hg (Sep 7, 9:30 PM)
Low72 °F (Sep 17, 6:00 AM)46% (Sep 21, 1:30 PM)29.59 "Hg (Sep 9, 4:30 PM)
Average83 °F83%29.68 "Hg
* Reported Sep 7 8:00 PM — Sep 22 7:30 PM, Hoshiarpur, Weather by CustomWeather, © 2014

Note: Actual official high and low records may vary slightly from our data, if they occured in-between our weather recording intervals... More about our weather records

Advertising

Hoshiarpur weather history for previous 24 hours

 ConditionsComfort  
Time TempWeatherWind HumidityBarometerVisibility
7:30 PM
Sep 22
84 °FFog.No wind84%29.68 "Hg3 mi
6:30 PM88 °FHaze.No wind66%29.68 "Hg3 mi
6:00 PM88 °FHaze.No wind66%29.65 "Hg3 mi
5:30 PM90 °FHaze.No wind63%29.65 "Hg3 mi
5:00 PM90 °FHaze.No wind63%29.65 "Hg3 mi
4:30 PM90 °FHaze.1 mph59%29.65 "Hg3 mi
4:00 PM91 °FHaze.2 mph56%29.65 "Hg3 mi
3:00 PM91 °FPassing clouds.2 mph63%29.68 "Hg4 mi
2:30 PM91 °FPassing clouds.5 mph59%29.68 "Hg4 mi
2:00 PM91 °FPassing clouds.2 mph56%29.68 "Hg4 mi
1:30 PM91 °FPassing clouds.1 mph56%29.71 "Hg4 mi
12:00 PM90 °FHaze.1 mph71%29.74 "Hg2 mi
11:30 AM88 °FHaze.2 mph70%29.74 "Hg2 mi
10:00 AM86 °FHaze.No wind70%29.74 "Hg2 mi
9:30 AM84 °FHaze.No wind74%29.74 "Hg2 mi
9:00 AM82 °FFog.No wind84%29.74 "Hg2 mi
8:30 AM81 °FFog.2 mph94%29.74 "Hg2 mi
8:00 AM79 °FFog.No wind94%29.74 "Hg1 mi
7:30 AM77 °FFog.No wind100%29.71 "Hg1 mi
7:00 AM75 °FFog.No wind100%29.71 "Hg1 mi
6:30 AM75 °FFog.No wind100%29.71 "Hg1 mi
6:00 AM75 °FFog.No wind100%29.71 "Hg1 mi
5:30 AM75 °FFog.No wind100%29.68 "Hg1 mi
5:00 AM75 °FFog.No wind100%29.68 "Hg1 mi
4:30 AM75 °FFog.No wind100%29.68 "Hg1 mi
4:00 AM75 °FFog.No wind100%29.68 "Hg1 mi
3:30 AM75 °FFog.No wind100%29.68 "Hg1 mi
2:30 AM77 °FFog.No wind94%29.68 "Hg1 mi
2:00 AM77 °FFog.No wind94%29.68 "Hg1 mi
1:30 AM77 °FFog.No wind94%29.71 "Hg2 mi
1:00 AM77 °FFog.No wind94%29.71 "Hg2 mi
12:30 AM77 °FFog.No wind94%29.71 "Hg2 mi
12:00 AM79 °FFog.No wind89%29.71 "Hg2 mi
11:30 PM
Sep 21
79 °FFog.No wind89%29.71 "Hg2 mi
11:00 PM79 °FFog.No wind89%29.71 "Hg2 mi
10:30 PM79 °FFog.No wind94%29.68 "Hg2 mi
10:00 PM79 °FFog.No wind94%29.68 "Hg2 mi
9:30 PM79 °FFog.No wind94%29.68 "Hg2 mi
8:30 PM81 °FFog.No wind89%29.68 "Hg2 mi
Weather by CustomWeather, © 2014

See weather overviewHow to use our weather pages